Location: Llanfihangel-Ystrad
(52.1833°N, 4.1667°W)
Time: 17:57:27
(UTC+00:00)

Cosmos 2333 Rocket - Pass Details

Date: 17 February 2020
Orbit: 841 x 861 km, 70.8° (Epoch: 27 March)

Event Time Altitude Azimuth Distance (km) Brightness Sun altitude
Exits shadow 03:31:55 33° 26° (NNE) 1,417 3.6 -36.0°
Drops below altitude 10° 03:34:56 10° 30° (NNE) 2,496 5.2 -35.6°
Sets 03:37:24 0° 32° (NNE) 3,433 6.1 -35.3°
